• In Österreich
  • Länderverzeichnis
  • Für 7 Tage
  • Wassertemperatur
  • Satellitenkarten
  • Wetterkarte
  • News
  • Widgets
  • user-avatar
    Anmelden

    Stündliche Wetter Düsseldorf

    Heute, 14 August, Dienstag

    Zeit Temperatur Niederschläge Wind Luftdruck Luftfeuchtigkeit
    00:00 +18°C° 0 mm 3 m/S 754 mmHg 87%
    01:00 +17°C° 0,1 mm 3 m/S 754 mmHg 89%
    02:00 +17°C° 0,1 mm 3 m/S 754 mmHg 90%
    03:00 +17°C° 0,1 mm 4 m/S 755 mmHg 91%
    04:00 +17°C° 0 mm 4 m/S 755 mmHg 90%
    05:00 +18°C° 0 mm 4 m/S 755 mmHg 89%
    06:00 +18°C° 0 mm 4 m/S 756 mmHg 88%
    07:00 +19°C° 0,1 mm 4 m/S 756 mmHg 85%
    08:00 +19°C° 0,1 mm 4 m/S 756 mmHg 81%
    09:00 +20°C° 0,1 mm 4 m/S 757 mmHg 77%
    10:00 +22°C° 0,1 mm 4 m/S 757 mmHg 71%
    11:00 +23°C° 0,1 mm 5 m/S 757 mmHg 64%
    12:00 +25°C° 0,1 mm 5 m/S 757 mmHg 57%
    13:00 +26°C° 0,1 mm 5 m/S 757 mmHg 55%
    14:00 +26°C° 0,1 mm 5 m/S 758 mmHg 54%
    15:00 +27°C° 0,1 mm 5 m/S 758 mmHg 52%
    16:00 +26°C° 0,1 mm 4 m/S 758 mmHg 56%
    17:00 +25°C° 0,1 mm 4 m/S 758 mmHg 60%
    18:00 +24°C° 0,1 mm 3 m/S 758 mmHg 64%
    19:00 +22°C° 0 mm 3 m/S 759 mmHg 68%
    20:00 +21°C° 0 mm 2 m/S 759 mmHg 73%
    21:00 +20°C° 0 mm 2 m/S 760 mmHg 77%
    22:00 +19°C° 0 mm 2 m/S 760 mmHg 79%
    23:00 +18°C° 0 mm 2 m/S 760 mmHg 80%

    Morgen, 15 August, Mittwoch

    Zeit Temperatur Niederschläge Wind Luftdruck Luftfeuchtigkeit
    00:00 +18°C° 0 mm 2 m/S 760 mmHg 82%
    01:00 +18°C° 0 mm 2 m/S 760 mmHg 82%
    02:00 +17°C° 0 mm 2 m/S 760 mmHg 82%
    03:00 +17°C° 0 mm 2 m/S 760 mmHg 82%
    04:00 +17°C° 0 mm 2 m/S 760 mmHg 81%
    05:00 +18°C° 0 mm 2 m/S 761 mmHg 80%
    06:00 +18°C° 0 mm 2 m/S 761 mmHg 79%
    07:00 +20°C° 0 mm 2 m/S 761 mmHg 72%
    08:00 +22°C° 0 mm 3 m/S 761 mmHg 66%
    09:00 +25°C° 0 mm 3 m/S 761 mmHg 59%
    10:00 +26°C° 0 mm 3 m/S 761 mmHg 56%
    11:00 +26°C° 0 mm 3 m/S 761 mmHg 53%
    12:00 +27°C° 0 mm 3 m/S 761 mmHg 51%
    13:00 +27°C° 0 mm 3 m/S 761 mmHg 50%
    14:00 +28°C° 0 mm 3 m/S 760 mmHg 50%
    15:00 +28°C° 0 mm 3 m/S 760 mmHg 50%
    16:00 +27°C° 0 mm 2 m/S 760 mmHg 52%
    17:00 +27°C° 0 mm 2 m/S 760 mmHg 55%
    18:00 +26°C° 0 mm 2 m/S 760 mmHg 57%
    19:00 +25°C° 0 mm 2 m/S 760 mmHg 61%
    20:00 +24°C° 0 mm 2 m/S 761 mmHg 65%
    21:00 +23°C° 0 mm 1 m/S 761 mmHg 69%
    22:00 +22°C° 0 mm 1 m/S 761 mmHg 72%
    23:00 +21°C° 0 mm 1 m/S 761 mmHg 74%

    übermorgen, 16 August, Donnerstag

    Zeit Temperatur Niederschläge Wind Luftdruck Luftfeuchtigkeit
    00:00 +21°C° 0 mm 1 m/S 761 mmHg 77%
    01:00 +20°C° 0 mm 1 m/S 760 mmHg 79%
    02:00 +20°C° 0 mm 1 m/S 760 mmHg 81%
    03:00 +19°C° 0 mm 1 m/S 760 mmHg 83%
    04:00 +19°C° 0 mm 2 m/S 760 mmHg 81%
    05:00 +19°C° 0 mm 2 m/S 760 mmHg 79%
    06:00 +20°C° 0 mm 2 m/S 760 mmHg 77%
    07:00 +23°C° 0 mm 2 m/S 760 mmHg 69%
    08:00 +25°C° 0 mm 2 m/S 760 mmHg 61%
    09:00 +27°C° 0 mm 3 m/S 759 mmHg 53%
    10:00 +28°C° 0 mm 3 m/S 759 mmHg 48%
    11:00 +29°C° 0 mm 3 m/S 759 mmHg 43%
    12:00 +30°C° 0 mm 3 m/S 758 mmHg 38%
    13:00 +31°C° 0 mm 3 m/S 758 mmHg 37%
    14:00 +31°C° 0 mm 2 m/S 757 mmHg 35%
    15:00 +32°C° 0 mm 2 m/S 757 mmHg 34%
    16:00 +31°C° 0 mm 2 m/S 757 mmHg 38%
    17:00 +30°C° 0 mm 2 m/S 757 mmHg 42%
    18:00 +29°C° 0 mm 1 m/S 757 mmHg 45%
    19:00 +27°C° 0 mm 2 m/S 757 mmHg 52%
    20:00 +25°C° 0 mm 3 m/S 757 mmHg 60%
    21:00 +24°C° 0 mm 3 m/S 758 mmHg 67%
    22:00 +22°C° 0,3 mm 3 m/S 758 mmHg 73%
    23:00 +21°C° 0,3 mm 3 m/S 758 mmHg 78%

    17 August, Freitag

    Zeit Temperatur Niederschläge Wind Luftdruck Luftfeuchtigkeit
    00:00 +20°C° 0,3 mm 2 m/S 758 mmHg 84%
    01:00 +19°C° 0,4 mm 2 m/S 758 mmHg 86%
    02:00 +19°C° 0,4 mm 2 m/S 758 mmHg 87%
    03:00 +19°C° 0,4 mm 2 m/S 758 mmHg 89%
    04:00 +19°C° 0,4 mm 2 m/S 758 mmHg 87%
    05:00 +18°C° 0,4 mm 2 m/S 759 mmHg 86%
    06:00 +18°C° 0,4 mm 2 m/S 759 mmHg 85%
    07:00 +19°C° 0,1 mm 2 m/S 759 mmHg 79%
    08:00 +20°C° 0,1 mm 2 m/S 760 mmHg 73%
    09:00 +21°C° 0,1 mm 3 m/S 760 mmHg 67%
    10:00 +22°C° 0 mm 3 m/S 760 mmHg 60%
    11:00 +24°C° 0 mm 3 m/S 760 mmHg 52%
    12:00 +25°C° 0 mm 3 m/S 760 mmHg 45%
    13:00 +25°C° 0 mm 3 m/S 761 mmHg 45%
    14:00 +25°C° 0 mm 3 m/S 761 mmHg 45%
    15:00 +24°C° 0 mm 3 m/S 761 mmHg 45%
    16:00 +24°C° 0 mm 3 m/S 761 mmHg 47%
    17:00 +23°C° 0 mm 2 m/S 761 mmHg 49%
    18:00 +23°C° 0 mm 2 m/S 762 mmHg 51%
    19:00 +21°C° 0 mm 2 m/S 762 mmHg 54%
    20:00 +19°C° 0 mm 2 m/S 763 mmHg 56%
    21:00 +19°C° 0 mm 1 m/S 763 mmHg 59%
    22:00 +19°C° 0 mm 1 m/S 763 mmHg 62%
    23:00 +18°C° 0 mm 1 m/S 763 mmHg 64%

    18 August, Samstag

    Zeit Temperatur Niederschläge Wind Luftdruck Luftfeuchtigkeit
    00:00 +16°C° 0 mm 1 m/S 763 mmHg 66%
    01:00 +16°C° 0 mm 1 m/S 763 mmHg 68%
    02:00 +16°C° 0 mm 1 m/S 763 mmHg 69%
    03:00 +15°C° 0 mm 2 m/S 763 mmHg 71%
    04:00 +16°C° 0 mm 2 m/S 764 mmHg 70%
    05:00 +16°C° 0 mm 2 m/S 764 mmHg 70%
    06:00 +17°C° 0 mm 2 m/S 764 mmHg 69%
    07:00 +18°C° 0 mm 3 m/S 764 mmHg 63%
    08:00 +20°C° 0 mm 3 m/S 764 mmHg 57%
    09:00 +22°C° 0 mm 3 m/S 764 mmHg 52%
    10:00 +23°C° 0 mm 4 m/S 763 mmHg 49%
    11:00 +25°C° 0 mm 4 m/S 763 mmHg 46%
    12:00 +26°C° 0 mm 4 m/S 763 mmHg 44%
    13:00 +26°C° 0 mm 4 m/S 763 mmHg 45%
    14:00 +26°C° 0 mm 4 m/S 762 mmHg 47%
    15:00 +26°C° 0 mm 4 m/S 762 mmHg 48%
    16:00 +25°C° 0 mm 4 m/S 762 mmHg 52%
    17:00 +24°C° 0 mm 3 m/S 762 mmHg 57%
    18:00 +24°C° 0 mm 3 m/S 762 mmHg 61%
    19:00 +22°C° 0 mm 3 m/S 763 mmHg 66%
    20:00 +20°C° 0 mm 2 m/S 763 mmHg 70%
    21:00 +19°C° 0 mm 2 m/S 763 mmHg 75%
    22:00 +19°C° 0 mm 2 m/S 763 mmHg 77%
    23:00 +19°C° 0 mm 2 m/S 763 mmHg 79%

    19 August, Sonntag

    Zeit Temperatur Niederschläge Wind Luftdruck Luftfeuchtigkeit
    00:00 +18°C° 0 mm 2 m/S 763 mmHg 82%
    01:00 +18°C° 0 mm 2 m/S 763 mmHg 83%
    02:00 +18°C° 0 mm 2 m/S 763 mmHg 85%
    03:00 +17°C° 0 mm 2 m/S 763 mmHg 86%
    04:00 +18°C° 0 mm 2 m/S 763 mmHg 85%
    05:00 +18°C° 0 mm 2 m/S 763 mmHg 84%
    06:00 +18°C° 0 mm 2 m/S 763 mmHg 83%
    07:00 +20°C° 0 mm 2 m/S 763 mmHg 78%
    08:00 +23°C° 0 mm 2 m/S 764 mmHg 72%
    09:00 +24°C° 0 mm 2 m/S 764 mmHg 66%
    10:00 +25°C° 0 mm 2 m/S 763 mmHg 63%
    11:00 +26°C° 0 mm 3 m/S 763 mmHg 59%
    12:00 +27°C° 0 mm 3 m/S 763 mmHg 56%
    13:00 +28°C° 0 mm 3 m/S 763 mmHg 54%
    14:00 +29°C° 0 mm 3 m/S 762 mmHg 52%
    15:00 +29°C° 0 mm 3 m/S 762 mmHg 50%
    16:00 +28°C° 0 mm 3 m/S 762 mmHg 52%
    17:00 +28°C° 0 mm 3 m/S 762 mmHg 55%
    18:00 +27°C° 0 mm 2 m/S 762 mmHg 58%
    19:00 +26°C° 0 mm 2 m/S 762 mmHg 62%
    20:00 +24°C° 0 mm 2 m/S 762 mmHg 65%
    21:00 +23°C° 0 mm 2 m/S 762 mmHg 69%
    22:00 +23°C° 0 mm 2 m/S 762 mmHg 70%
    23:00 +21°C° 0 mm 2 m/S 762 mmHg 71%
    Mehr zeigen